Location: Newark
(6.1731°S, 35.7419°E)
Time: 19:00:29
(UTC+00:00)

Courier 1B - Visible Passes

Search period start: 16 February 2020 00:00
Search period end: 26 February 2020 00:00
Orbit: 962 x 1209 km, 28.3° (Epoch: 16 February)

Date Brightness Start Highest point End Pass type
(mag) Time Alt. Az. Time Alt. Az. Time Alt. Az.
16 Feb 8.6 01:07:34 41° SSE 01:07:34 41° SSE 01:12:17 10° SE visible
16 Feb 9.3 02:54:56 10° WSW 03:00:08 22° SSW 03:05:35 10° SSE visible
17 Feb 10.0 00:17:15 16° ESE 00:17:15 16° ESE 00:18:25 10° ESE visible
17 Feb 8.9 02:04:09 24° SW 02:06:00 27° SSW 02:11:55 10° SE visible
18 Feb 9.0 01:13:47 30° S 01:13:47 30° S 01:18:16 10° SE visible
18 Feb 9.7 03:03:31 10° SW 03:07:19 15° SSW 03:11:13 10° SSE visible
19 Feb 10.0 00:23:25 15° SE 00:23:25 15° SE 00:24:35 10° SE visible
19 Feb 9.4 02:10:19 14° SW 02:13:02 17° SSW 02:17:33 10° SSE visible
20 Feb 9.3 01:19:56 20° S 01:19:56 20° S 01:23:58 10° SSE visible
20 Feb 9.9 03:12:28 10° SSW 03:14:42 11° S 03:16:57 10° SSE visible
21 Feb 10.0 00:29:32 13° SSE 00:29:32 13° SSE 00:30:26 10° SSE visible
21 Feb 9.7 02:17:37 10° SSW 02:20:19 12° S 02:23:04 10° SSE visible
22 Feb 9.6 01:26:02 14° SSW 01:26:02 14° SSW 01:29:29 10° SSE visible
22 Feb 10.0 03:20:35 10° S 03:22:10 11° S 03:23:46 10° SSE visible
23 Feb 10.1 00:35:37 11° SSE 00:35:37 11° SSE 00:36:02 10° SSE visible
23 Feb 10.0 02:26:55 10° S 02:27:46 10° S 02:28:37 10° S visible
24 Feb 9.8 01:32:07 10° SSW 01:33:24 11° S 01:34:41 10° S visible
25 Feb 10.0 02:33:52 10° S 02:35:14 11° S 02:36:37 10° SSE visible
25 Feb 9.7 17:57:13 10° NNW 17:57:56 12° N 17:57:56 12° N visible
